Race Results for
Tour of the Catskills
Hunter, NY
(Event Information)
Road Race on 09/08/2008

Note: Ranking points are NOT upgrade points. An explanation of ranking points can be found here.


Men - Pro/Cat 1/2

 Place Points NameCity, StateTime USAC #BibTeam
1486.26Justin Lindine   North Ogden, UT03:56:30 205717  TARGETRAINING / U25 Elite
2490.64Daniel Cassidy (1 - Cat1)   San Antonio, TX03:56:37 190683  CCB/Volkswagon
3495.01Roger Aspholm   Haworth, NJ03:56:37 136195  Westwood Velo
4499.39William Nowak   Wallingford, CT04:06:08 258778  TARGETRAINING / U25 Elite
5503.77Amos Brumble IV   Westerly, RI04:07:20 5230  CCB/Volkswagon
6508.14Adam St Germain   Burlington, VT04:12:43 193706  TARGETRAINING/FASTAR
7512.52Adam Zimmerman   Highlands Ranch, CO04:16:00 248373  24 Max Power Cycling
8516.90Kyle Peppo   New York, NY04:28:05 231787  19 CRCA/Jonathan Adler Racing
9521.27Austin Roach   Bloomfield, IN04:34:03 255885  21 Princeton University Cycling
10525.65J Gabriel Lloyd   Kutztown, PA04:34:03 202639  TARGETRAINING / U25 Elite
11530.03Peter Bradshaw (2 - Cat1)   Boston, MA04:34:03 120392  NEBC/Cycle Loft/Devonshire Dental
12534.40David Hoyle   Rocky Hill, CT04:34:03 223454  TARGETRAINING / U25 Elite
DQJohn McGill   Montpelier, VT 101738  14 Onion River Sports

Men - Cat 3

 Place Points NameCity, StateTime USAC #BibTeam
1519.00Nick Pignatello   Cobalt, CT02:28:56 240810  357 Exodus Road Racing
2522.65Ernest Tautkus   Uncasville, CT02:30:40 107000  374 Exodus Road Racing
3526.29Peter Hurst   Norwalk, CT02:30:40 148404  334 Connecticut Coast Cycling
4529.94Aaron Wolfe   Cold Spring, NY02:30:40 213638  379 CRCA/SouthAfrica.net
5533.58Timothy Oakes   New York, NY02:30:40 201427  380 Champion System Racing
6537.23Lee Peters   Oakland, CA02:30:40 252197  355 UVM Cycling
7540.88David Fierro   Gales Ferry, CT02:30:40 242328  320 Exodus Road Racing/Pools etc/Brumble Bik
8544.52Chris Chapman   Ridgewood, NJ02:30:40 166529  309 Westwood Velo
9548.17Sean Groenewald   West New York, NJ02:36:46 212581  324 CRCA/SouthAfrica.net
10551.81Andrew Bernstein   Allentown, PA02:36:46 204817  303 Brooklyn Velo Force/GQ Racing
11555.46Stephen Sloan   Sidney, NY02:37:55 241757  368 ScottGrimshaw.net/MaxPowerCycling.com
12559.11Jesse Gutierrez   Charlotte, NC02:40:22 254666  325 DC Racing / Sebago Shoes / Mtn Outfitter
13562.75Christoffel Prinsloo   Tappan, NY02:42:16 232344  359 CRCA/SouthAfrica.Net
14566.40Cody Miller   Phoenix, AZ02:56:26 204196  347 Team Waste Management
15570.04Nathaniel Eng   Fremont, CA03:03:25 237552  318 CRCA / Avenue A | Razorfish Cycling

Men - Cat 4

 Place Points NameCity, StateTime USAC #BibTeam
1475.85Stefan Kusurelis   New York, NY02:29:20 271859  339 Cadence Cycling
2479.02Danny Habig   Massapequa, NY02:30:40 259066  327 
3482.19James Stevens   Brooklyn, NY02:30:40 277525  370 GS Gotham/Toga
4485.36Daniel Barney   Fairport, NY02:30:40 230661  302 Mac 5 Bikes / GVCC
5488.53Shane Moran   Piermont, NY02:30:40 216570  348 Westwood Velo
6491.70Bill Golembieski   Boulder, CO02:30:40 274222  323 ScottGrimshaw.Net/MaxPowerCycling.com
7494.88David Carr   New York, NY02:30:40 256699  308 CRCA/Setanta
8498.05joseph holler   Providence, RI02:30:40 260758  331 Hollyloft / Kwik Fill
9501.22Nathan Piche   Hoosick Falls, NY02:30:40 277471  356 Farm Team Cycling
10504.39Ben Reynolds   Annapolis, MD02:30:40 147430  362 Bayside Velo / Bike Doctor
11507.56Jonathan Nash   Pawling, NY02:30:40 276379  351 
12510.73James Walker   Elizabethtown, NY02:35:57 225529  377 Team Placid Planet
13513.90Aaron Hall   Boston, MA02:36:07 274578  328 Harvard
14517.07Neil Cooper   New York, NY02:36:13 265214  313 CRCA
15520.24Paul Eisele   Andes, NY02:36:46 253966  317 Max Power Cycling
16523.41Jeff Hoover   Liverpool, NY02:36:58 247979  332 maxpowercycling
18526.58Jason Schmidt   Los Gatos, CA02:40:12 231913  366 
19529.75Gino Scotto   Upper Brookville, NY02:40:12 267652  367 CRCA/SouthAfrica.net
20532.92Jay Vincent   Bethel, CT02:40:17 223649  376 Cycle Center Racing
21536.10Ira Blumberg   New York, NY02:40:22 264625  304 CRCA
22539.27Todd Brilliant   New York, NY02:40:25 116974  306 CRCA/Setanta
23542.44Adam Rosenthal   New York, NY02:44:00 248088  364 CRCA/Oganic Athlete
24545.61Elliot Hawkes   Stanford, CA02:46:07 275956  329 
25548.78Jimmy Andrello   New York, NY02:46:13 230311  301 Century Road Club Association
26551.95Benjamin Hughes   New York02:46:24 204305  333 CRCA/Merrill Lynch-Hincapie Sports
27555.12Joshua Storck   Brooklyn, NY02:49:00 267615  371 Brooklyn Velo Force / GQ Racing
28558.29Jordan Jan   Brooklyn, NY02:52:31 255942  335 Brooklyn Velo Force / GQ Racing
29561.46Bill Moss   New York, NY02:55:03 200118  349 CRCA/SouthAfrica.net
30564.63Etsu Taniguchi   New York, NY02:55:16 237492  373 CRCA / Avenue A | Razorfish Cycling
31567.80Tom Laskey   New York, NY03:06:05 177472  340 CRCA/Setanta
32570.98Jonathan Leong   New York, NY03:06:27 269143  342 El Puente
33574.15Michael Lenihan   Lake George, NY03:07:37 213656  341 Battenkill-United/anthemcycles.com
34577.32sorin ciurea   New York, NY03:10:32 255193  311 New York Bicycle Racing Association
35580.49Anthony Mazzella   New York, NY03:16:58 150407  345 Sanchez -Metro / CRCA
36583.66Russell Raymundo   Oakland Gardens, NY03:20:24 264669  361 
37586.83H Neal Reynolds   Severna Park, MD03:25:57 158852  363 Bike Doctor/Bayside Velo
38590.00maurice osorio   Douglaston, NY03:29:14 271954  354 kissena cycling club
23704Jeremy Dawkins   Gardiner, NY New Paltz 268228  315 The Bicycle Depot

Men - Cat 5

 Place Points NameCity, StateTime USAC #BibTeam
1Larry Altman   02:39:44  150 gmbc
2542.38Matthew Doran   Nyack, NY02:39:44 268390  161 RETRO VELO
3544.76Brian Donohue   Boltonlanding, NY02:43:31 281651  160 Battenkill-United
4David Tacheny   02:48:15  175 NYVelocity.com
5549.52Philip Everett   New York, NY02:48:53 281036  165 CRCA/NYVelocity
6551.90jeremy drowne   Saratoga Springs, NY02:52:31 261083  162 Battenkill-United
7Pedro Furtado   02:59:15  166 signature cycles\dkny
8Terence Cordner   02:59:15  158 
9559.05Rich Burnley   Gansevoort, NY03:01:42 249140  153 Battenkill United
10Jeffrey Jenkins   03:04:10  167 
11Peter Manning   03:04:18  169 
12566.19Evan Chalfin   New Rochelle, NY03:06:39 272603  156 CRCA/ NYVELOCITY
13568.57JASON ONEILL   Chappaqua, NY03:07:18 280574  170 CATSKILL MULTI SPORT e=cm2
14Chris Carey   03:09:25  155 NAD Racing
15Anthony Larocca   03:09:53  168 Fitness Concepts
16575.71charles braman   Greene, NY03:14:01 261132  151 tioga velo
17Peter Rasmussen   03:14:10  172 Windham Mountain Outfitters
18Scott Husta   03:30:47  176 
19582.86James Brosnan   New York, NY03:33:05 266263  152 CRCA/NYVelocity
20Robert Dutcher   03:43:16  163 MORE
21Kevin Maldonado   03:52:23  178 
22590.00Stephen Dutcher   Walton, NY03:54:18 268989  164 

Men - Master - MR - 30-99

 Place Points NameCity, StateTime USAC #BibTeam
1529.18Fernando Ferreira   Poughkeepsie, NY02:34:26 53209  43 bicycling magazine
2535.94Christian Favata   Rosendale , NY02:34:30 135665  42 Alan North American Cycling Team
3542.70Gregg Galletta   Dobbs Ferry, NY02:34:30 97363  44 CRCA - Merrill Lynch/Hincapie Sports
4549.45Kurt Gustafsson   Brooklyn, NY02:34:44 14451  45 CRCA / AXIS
5556.21Peter Ozolins   Ithaca, NY02:38:55 65486  47 ChrisCookies.com
6562.97Humberto Cavalheiro   Centeral Vally, NY02:39:46 192485  40 dkny\signature cylces
7569.73Peter Dinolfo   Troy, NY02:41:11 112082  41 North Atlantic Velo/ClassBook.Com/Giant/
8576.48Mark Miller   Hurley, NY02:44:19 56699  46 Table Rock (TRT)
9583.24Jason Schreer (1 - Cat4)   Potsdam, NY02:47:52 275422  48 
10590.00Kyle Wolfe   Cambridge, NY03:04:30 38789  50 TARGETRAINING

Men - Master - MR - 40-99

 Place Points NameCity, StateTime USAC #BibTeam
1486.75Todd Cassan   Boulder, CO02:34:23 6406  72 Westwood Velo
2497.07Don Sproull   Auburn, NY02:34:30 210436  82 ChrisCookies.com/Swan Cycles/FLCC
3507.40Troy Kimball   Austin, TX02:34:30 118576  77 Westwood Velo
4517.73David Faso   Cazenovia, NY02:34:48 11315  74 MaxPowerCycling.com
5Albino Moita   02:40:34  80 dyny\signature cycles
6538.38Marc Cesare   Brooklyn, NY02:40:55 59874  73 CRCA/DKNY-Signature Cycles
7548.70Andrew Melnychenko   Alpine, NY02:47:00 52777  79 Maxpowercycling
8559.02Bruce Armentrout   Williamstown, MA02:52:50 243525  70 Battenkill United/Unicorr
9569.35J Craig Robertson   Williamstown, MA02:54:00 217468  81 
10579.67Jackson Wandres   Brooklyn, NY03:02:20 46043  84 Deno's Wonder Wheels
11590.00John Halloran   New York, NY03:11:21 262310  76 CRCA

Men - Master - MR - 50-99

 Place Points NameCity, StateTime USAC #BibTeam
1396.34Douglas O'Neill   West New York, NJ02:34:30 50217  107 Deno's Wonder Wheel
2417.37Mark Luzio   Brooklyn, CT02:34:30 83266  104 CYCLE FITNESS
3438.41Thomas Officer   Litchfield, CT02:34:40 45751  108 Cycle Fitness (last one boys!)
4459.44Andrew Ross   Mexico, NY02:38:55 229898  111 MaxPowerCycling.com
5480.47Robert Roldan   Somerville, MA02:44:19 98318  110 everactiveonline/Workers Comp Solutions
6501.50James Marshall   North Bennington, VT02:49:51 218450  105 Competitive Edge Racing Team
7522.54Kenneth Grey   Saratoga Springs, NY02:54:00 279927  101 
8543.57Robert Meikle   Sayre, PA02:55:40 211727  106 Mystic Velo Club
9564.60Phillip Hershberger   Climax, NY03:13:27 66821  102 CBRC

Women - Cat 1/2/3/4

 Place Points NameCity, StateTime USAC #BibTeam
1455.34Elena Leznik   Fort Lee, NJ02:43:22 228861  133 CRCA/Radical Media
2465.18Evelyn Stevens   San Francisco, CA02:43:22 272861  137 CRCA / Radical Media
3475.01Silke Wunderwald   Hopkinton, RI02:48:05 236023  138 Independent Fabrication/Kempner
4Cheryl Rondeau   02:54:03  135 Independent
5494.68Donna McMahon   Farmingdale, NY02:59:05 264367  134 GBSC Babylon Bike
6504.52Caryl Gale   Hoboken, NJ03:06:44 60259  129 CRCA-Comedy Central-Sids
7514.35Britlee Bowman   New York, NY03:13:10 280476  126 
8524.19laura kozlowski   Boxford, MA03:13:22 262612  132 Velo Bella
9534.03Karen Franzen   Wethersfield, CT03:21:57 193702  128 CVC/Subaru of New England
10543.86stephanie busloff   New York, NY03:22:45 257246  127 CRCA/Avenue A/Razorfish Cycling
11Felicia Kearsley   03:38:53  130 

Report missing or incorrect license numbers

Volkswagen
ShimanoSpySierra NevadaBonk BreakerUSACDF
UCI USA Cycling is the official governing body for all disciplines of competitive cycling in the United States. The 501c3, membership-based organization aims both to achieve sustained success in international cycling competition and to grow competitive cycling in America while delivering an exceptional customer experience.
View Children's Online Privacy Protection Policy
US Olympic Committee